[[{"header":{"parameterUnit":"m.s-1","parameterCategory":1,"la1":30.2991,"la2":30.254,"lo1":-89.0895,"lo2":-89.0444,"dy":0.0017,"dx":0.0017,"nx":28,"ny":28,"refTime":"2023-04-27T21:00:00:Z","depth":0,"parameterNumber":2,"parameterNumberName":"U-component_of_WINDS"},"data":[0,0,0,0,0,0,0,0,0,0,0,0,0,0,0,0,0,0,0,0,0,0,0,0,0,0,0,0,0,0,0,0,0,0,0,0,0,0,0,0,0,0,0,0,0,0,0,0,0,0,0,0,0,0,0,0,0,0,2.6526,2.6525,0,2.6476,2.6476,2.6475,2.648,2.648,2.6481,2.6482,2.6429,2.6427,2.6425,0,0,0,0,0,0,0,0,0,0,0,0,0,2.6624,2.6622,2.6526,2.6525,2.6524,2.6476,2.6476,2.6475,2.6479,2.648,2.6481,2.6482,2.643,2.6427,2.6425,0,0,0,0,0,0,0,0,0,0,0,0,0,2.6579,2.6622,2.6526,2.6521,2.652,2.6476,2.6476,2.6475,2.6479,2.648,2.6482,2.6483,2.6431,2.6428,2.6425,2.6382,0,0,2.6415,2.6413,0,0,0,0,0,0,0,0,2.6581,2.6575,2.6522,2.6521,2.652,2.6485,2.6491,2.6444,2.6479,2.6495,2.6482,2.6483,2.6447,2.6442,2.6431,2.638,2.6377,2.6415,2.6413,2.6411,2.641,0,0,0,0,0,0,0,2.6584,2.6577,2.6506,2.6521,2.652,2.6521,2.6516,2.6482,2.6465,2.6493,2.6494,2.6488,2.6446,2.6434,2.6429,2.6377,2.6415,2.6412,2.641,2.6409,2.6292,2.6291,0,0,0,0,0,0,2.6589,2.658,2.6508,2.6505,2.6554,2.6519,2.6513,2.6495,2.6465,2.6462,2.6487,2.6488,2.6438,2.6433,2.6428,2.6378,2.6411,2.6408,2.6407,2.6293,2.6291,2.629,0,0,0,0,0,0,2.6591,2.6582,2.651,2.6542,2.6533,2.6516,2.6496,2.6494,2.6481,2.646,2.6457,2.6477,2.6439,2.6432,2.6394,2.6376,2.6407,2.6404,2.6294,2.6292,2.6291,2.6277,0,0,0,0,0,0,2.6594,2.6583,2.6566,2.6542,2.6531,2.6477,2.6495,2.6492,2.6476,2.6477,2.645,2.6447,2.6439,2.6399,2.6391,2.6372,2.6402,2.6296,2.6293,2.6291,2.6279,2.6275,2.6272,0,0,0,0,0,2.6597,2.6563,2.6565,2.6557,2.651,2.6476,2.647,2.6463,2.6474,2.6458,2.6445,2.6448,2.6379,2.6395,2.6386,2.6366,2.6297,2.6294,2.6292,2.6281,2.6276,2.6272,0,0,0,0,0,0,2.6584,2.656,2.6562,2.6519,2.65,2.6477,2.6455,2.6457,2.6433,2.6435,2.6427,2.6421,2.6384,2.6371,2.6389,2.6325,2.634,2.6335,2.6335,2.633,2.6326,2.633,2.6399,0,0,0,0,0,2.6577,2.6551,2.6531,2.6495,2.6486,2.6472,2.6457,2.6454,2.6433,2.6424,2.6409,2.6388,2.6362,2.6345,2.632,2.6278,2.6273,2.626,2.6256,2.6253,2.6249,2.6229,2.6223,2.6281,2.6281,2.6281,0,0,2.656,2.6544,2.6528,2.6492,2.6477,2.6451,2.6465,2.6436,2.6417,2.6419,2.6384,2.6372,2.6349,2.6309,2.6291,2.6297,2.6233,2.625,2.6247,2.6245,2.6225,2.622,2.6215,2.6279,2.628,2.628,0,0,2.6518,2.6502,2.6472,2.6457,2.6434,2.6426,2.6419,2.6396,2.6389,2.6353,2.6355,2.6333,2.6288,2.6272,2.6258,2.6213,2.6216,2.6205,2.6186,2.6166,2.6161,2.6157,2.6143,2.6138,2.6201,2.6201,2.6201,0,2.65,2.6462,2.6456,2.6428,2.6413,2.6416,2.6386,2.6371,2.6341,2.6331,2.6339,2.6286,2.627,2.6228,2.6217,2.6205,2.6198,2.6208,2.6162,2.6158,2.6154,2.6141,2.6135,2.62,2.6201,2.6201,2.6201,0,2.6442,2.6416,2.6394,2.6367,2.635,2.632,2.6311,2.6295,2.6293,2.6285,2.625,2.6232,2.6204,2.6194,2.6191,2.6153,2.6158,2.6164,2.6179,2.6148,2.6135,2.613,2.6199,2.6199,2.62,2.62,0,0,2.6388,2.6361,2.6353,2.6342,2.6319,2.6298,2.627,2.6245,2.6232,2.6211,2.6189,2.6152,2.6159,2.6144,2.614,2.6122,2.6091,2.6131,2.613,2.6125,2.6049,2.6045,2.6039,2.6092,2.6091,2.609,2.6052,0,2.6344,2.6296,2.6292,2.6248,2.6225,2.6229,2.6205,2.6188,2.618,2.6159,2.615,2.6125,2.6135,2.6126,2.6109,2.6098,2.6075,2.6101,2.6072,2.6071,2.6079,2.6032,2.6027,2.5992,2.6047,2.6046,2.6045,0,2.6286,2.6267,2.6221,2.6204,2.6194,2.6173,2.6151,2.6131,2.6113,2.6108,2.6093,2.6092,2.6065,2.6081,2.6044,2.6061,2.6049,2.6043,2.6041,2.6038,2.6056,2.603,2.598,2.5975,2.6037,2.6037,2.6038,0,2.6254,2.6216,2.6185,2.6175,2.6153,2.6139,2.6129,2.6113,2.6099,2.6079,2.6071,2.6048,2.6036,2.6019,2.6013,2.6024,2.5977,2.5991,2.5973,2.5973,2.5963,2.5963,2.5911,2.5954,2.5954,2.5954,2.5954,0,2.6206,2.6178,2.6171,2.6151,2.6122,2.6117,2.6088,2.6079,2.6065,2.6045,2.6046,2.6027,2.602,2.6,2.5995,2.5966,2.596,2.5957,2.5956,2.5957,2.5958,2.5949,2.5952,2.5952,2.5953,2.5953,2.5953,0,2.6164,2.6158,2.6124,2.6108,2.6103,2.6082,2.6068,2.605,2.6044,2.6018,2.6012,2.6001,2.5979,2.5971,2.5942,2.5939,2.5907,2.5907,2.5913,2.5913,2.5896,2.5898,2.5837,2.583,2.5876,2.5875,2.5875,0,2.6135,2.6114,2.6096,2.6084,2.6074,2.6053,2.604,2.6035,2.6021,2.6002,2.5986,2.5964,2.5946,2.5909,2.5899,2.5878,2.5879,2.5859,2.5876,2.5879,2.5881,2.5883,2.5881,2.5856,2.5856,2.5855,2.5855,0,2.6083,2.6082,2.6063,2.6043,2.6028,2.6012,2.5996,2.5986,2.598,2.5964,2.5942,2.5928,2.5901,2.5879,2.5859,2.5849,2.5851,2.585,2.5845,2.5846,2.5851,2.585,2.5906,2.5852,2.5852,2.5852,2.5852,2.5852,2.6047,2.6031,2.6016,2.5996,2.5985,2.5971,2.5954,2.5947,2.5928,2.5906,2.5905,2.5881,2.5867,2.5839,2.5829,2.5811,2.5816,2.5809,2.5807,2.5805,2.5805,2.5854,2.5807,2.5807,2.5807,2.5807,2.5807,0,2.5998,2.5989,2.5971,2.5951,2.5935,2.594,2.5924,2.5911,2.589,2.5877,2.586,2.5835,2.5815,2.5805,2.5785,2.5772,2.5773,2.5767,2.5769,2.5767,2.58,2.5807,2.5767,2.5767,2.5767,2.5767,2.5767,2.5767,2.597,2.5942,2.594,2.5907,2.5899,2.5877,2.5868,2.5856,2.5845,2.5818,2.5802,2.5796,2.5784,2.5764,2.5746,2.5744,2.5737,2.5731,2.5729,2.576,2.5764,2.5768,2.5775,2.5729,2.5729,2.5698,2.5697,2.5697]},{"header":{"parameterUnit":"m.s-1","parameterCategory":1,"la1":30.2991,"la2":30.254,"lo1":-89.0895,"lo2":-89.0444,"dy":0.0017,"dx":0.0017,"nx":28,"ny":28,"refTime":"2023-04-27T21:00:00:Z","depth":0,"parameterNumber":3,"parameterNumberName":"V-component_of_WINDS"},"data":[0,0,0,0,0,0,0,0,0,0,0,0,0,0,0,0,0,0,0,0,0,0,0,0,0,0,0,0,0,0,0,0,0,0,0,0,0,0,0,0,0,0,0,0,0,0,0,0,0,0,0,0,0,0,0,0,0,0,-1.9793,-1.9794,0,-1.9917,-1.9919,-1.992,-1.9952,-1.9951,-1.995,-1.995,-2.0079,-2.0083,-2.0087,0,0,0,0,0,0,0,0,0,0,0,0,0,-1.9586,-1.959,-1.9793,-1.9794,-1.9796,-1.9917,-1.9919,-1.992,-1.9952,-1.9951,-1.995,-1.9949,-2.0077,-2.0082,-2.0087,0,0,0,0,0,0,0,0,0,0,0,0,0,-1.969,-1.9591,-1.9792,-1.9826,-1.983,-1.9917,-1.9919,-1.9921,-1.9952,-1.9951,-1.995,-1.9949,-2.0076,-2.0082,-2.0088,-2.015,0,0,-2.0107,-2.011,0,0,0,0,0,0,0,0,-1.9684,-1.9697,-1.982,-1.9824,-1.9829,-1.9918,-1.9893,-1.9998,-1.9953,-1.9906,-1.995,-1.9948,-2.0026,-2.0036,-2.0062,-2.0156,-2.0161,-2.0107,-2.0111,-2.0114,-2.0116,0,0,0,0,0,0,0,-1.9677,-1.9692,-1.9842,-1.9821,-1.9827,-1.9836,-1.985,-1.9913,-1.9971,-1.991,-1.9913,-1.9927,-2.0028,-2.0056,-2.0066,-2.0163,-2.0107,-2.0113,-2.0117,-2.0119,-2.0318,-2.0319,0,0,0,0,0,0,-1.9663,-1.9686,-1.9838,-1.9846,-1.9752,-1.9841,-1.9856,-1.989,-1.9971,-1.9982,-1.9928,-1.9928,-2.0046,-2.0058,-2.007,-2.0151,-2.0114,-2.012,-2.0123,-2.0316,-2.0318,-2.032,0,0,0,0,0,0,-1.9659,-1.9677,-1.9833,-1.9767,-1.9787,-1.9846,-1.9884,-1.9894,-1.9921,-1.9984,-1.9995,-1.9945,-2.0046,-2.0061,-2.0131,-2.0156,-2.0122,-2.0128,-2.0315,-2.0317,-2.0319,-2.0311,0,0,0,0,0,0,-1.9653,-1.9675,-1.9698,-1.9767,-1.9791,-1.989,-1.9886,-1.9897,-1.9932,-1.9933,-2.0003,-2.0014,-2.0046,-2.0121,-2.0137,-2.0164,-2.0133,-2.0313,-2.0316,-2.0318,-2.0309,-2.0312,-2.0315,0,0,0,0,0,-1.9645,-1.969,-1.9699,-1.9717,-1.982,-1.9891,-1.9905,-1.9941,-1.9934,-1.9958,-1.9999,-2.0011,-2.015,-2.0128,-2.0146,-2.0175,-2.0311,-2.0315,-2.0318,-2.0307,-2.0312,-2.0315,0,0,0,0,0,0,-1.9621,-1.9699,-1.971,-1.9778,-1.9828,-1.9896,-1.9928,-1.9943,-1.9997,-1.9996,-2.0039,-2.0054,-2.0121,-2.0155,-2.0129,-2.0241,-2.0231,-2.0238,-2.0217,-2.0221,-2.0224,-2.0215,-2.0138,0,0,0,0,0,-1.9624,-1.9674,-1.974,-1.9794,-1.9818,-1.9869,-1.9901,-1.9925,-1.9978,-1.9999,-2.0045,-2.0097,-2.0153,-2.0189,-2.0243,-2.0314,-2.0331,-2.0343,-2.0346,-2.0348,-2.0355,-2.0398,-2.0405,-2.0331,-2.0331,-2.0331,0,0,-1.963,-1.9679,-1.9708,-1.979,-1.9831,-1.9884,-1.9886,-1.9941,-1.9981,-2.0008,-2.0077,-2.0112,-2.0174,-2.0245,-2.0278,-2.0275,-2.0379,-2.0353,-2.0354,-2.0359,-2.0402,-2.0409,-2.0415,-2.0334,-2.0333,-2.0333,0,0,-1.9668,-1.9709,-1.976,-1.9802,-1.9865,-1.9899,-1.9911,-1.9979,-2.0004,-2.0073,-2.0095,-2.0144,-2.0238,-2.0282,-2.0317,-2.0376,-2.039,-2.0392,-2.0409,-2.0451,-2.0457,-2.0462,-2.0486,-2.0493,-2.0398,-2.0398,-2.0398,0,-1.9668,-1.9747,-1.9784,-1.9839,-1.9876,-1.9903,-1.9957,-1.9996,-2.0073,-2.0099,-2.0094,-2.0215,-2.0258,-2.0342,-2.0356,-2.0382,-2.04,-2.0384,-2.0453,-2.0458,-2.0464,-2.0487,-2.0496,-2.0398,-2.0398,-2.0398,-2.0398,0,-1.9745,-1.98,-1.9834,-1.9909,-1.995,-2.0003,-2.005,-2.0087,-2.0108,-2.0143,-2.0216,-2.0269,-2.0336,-2.0357,-2.0378,-2.0445,-2.0441,-2.0444,-2.0435,-2.047,-2.0493,-2.0502,-2.0398,-2.0398,-2.0398,-2.0398,0,0,-1.977,-1.9868,-1.988,-1.9916,-1.9989,-2.0033,-2.0089,-2.0155,-2.0187,-2.024,-2.029,-2.0371,-2.0375,-2.0414,-2.044,-2.0477,-2.0524,-2.0476,-2.0478,-2.0485,-2.0605,-2.0604,-2.0613,-2.0534,-2.0535,-2.0537,-2.0601,0,-1.982,-1.992,-1.9957,-2.004,-2.0094,-2.0122,-2.0171,-2.0223,-2.0258,-2.0309,-2.0348,-2.0406,-2.0405,-2.043,-2.0467,-2.051,-2.0549,-2.0506,-2.0583,-2.0585,-2.0568,-2.0624,-2.0623,-2.068,-2.0609,-2.0611,-2.0612,0,-1.989,-1.9945,-2.0034,-2.0104,-2.0127,-2.0171,-2.0237,-2.0284,-2.0344,-2.0368,-2.0413,-2.0437,-2.05,-2.0486,-2.0574,-2.0544,-2.0578,-2.0605,-2.0608,-2.0617,-2.0601,-2.0638,-2.0699,-2.0708,-2.0626,-2.0624,-2.0623,0,-1.9902,-1.9999,-2.0066,-2.0095,-2.0178,-2.0208,-2.0244,-2.0303,-2.0342,-2.0399,-2.0425,-2.0489,-2.0524,-2.0574,-2.0616,-2.0602,-2.0701,-2.069,-2.0724,-2.0724,-2.0745,-2.0743,-2.0814,-2.0763,-2.0763,-2.0763,-2.0763,0,-1.9954,-2.0008,-2.0073,-2.0114,-2.0177,-2.0219,-2.0281,-2.0318,-2.0371,-2.0422,-2.045,-2.0497,-2.0548,-2.0603,-2.0636,-2.0705,-2.072,-2.0743,-2.0751,-2.0741,-2.0739,-2.0765,-2.0763,-2.0765,-2.0765,-2.0764,-2.0764,0,-1.9979,-2.0024,-2.01,-2.0172,-2.0192,-2.0235,-2.0298,-2.034,-2.0377,-2.0441,-2.0459,-2.0518,-2.0584,-2.063,-2.0714,-2.0737,-2.0813,-2.082,-2.0793,-2.0797,-2.083,-2.0827,-2.0922,-2.0938,-2.0874,-2.0874,-2.0874,0,-2.001,-2.0052,-2.013,-2.0166,-2.0202,-2.0259,-2.03,-2.0344,-2.0385,-2.0458,-2.0493,-2.056,-2.0617,-2.0722,-2.0773,-2.0839,-2.0849,-2.0878,-2.0859,-2.0849,-2.0853,-2.085,-2.0856,-2.0881,-2.0881,-2.0882,-2.0882,0,-2.0061,-2.0082,-2.0138,-2.0204,-2.0251,-2.0304,-2.0358,-2.0387,-2.0441,-2.0486,-2.0554,-2.0598,-2.0686,-2.0754,-2.0825,-2.0864,-2.0883,-2.0887,-2.0899,-2.089,-2.0874,-2.0886,-2.0803,-2.0885,-2.0885,-2.0885,-2.0884,-2.0884,-2.0091,-2.0132,-2.0194,-2.0257,-2.0302,-2.0353,-2.0397,-2.0441,-2.0498,-2.0573,-2.0596,-2.0668,-2.073,-2.0828,-2.0868,-2.0926,-2.0924,-2.094,-2.0945,-2.0949,-2.095,-2.0863,-2.0938,-2.0938,-2.0938,-2.0938,-2.0938,0,-2.0146,-2.0188,-2.0245,-2.0321,-2.0371,-2.0384,-2.0446,-2.0488,-2.055,-2.0606,-2.0662,-2.0742,-2.081,-2.0867,-2.0937,-2.0972,-2.0983,-2.0989,-2.0988,-2.0998,-2.0946,-2.093,-2.098,-2.098,-2.098,-2.098,-2.098,-2.098,-2.018,-2.025,-2.028,-2.0374,-2.0416,-2.0486,-2.0521,-2.0569,-2.0614,-2.0702,-2.0758,-2.0795,-2.0853,-2.0928,-2.0991,-2.1007,-2.1032,-2.1037,-2.1054,-2.1005,-2.1001,-2.0996,-2.0982,-2.1041,-2.1041,-2.1102,-2.1102,-2.1103]}]]